Starlink 11684

operational
NORAD ID: 64240 Int'l Des: 2025-119 Owner: SPXS Country: US Constellation: starlink
LEOCIRCULAR

Über Starlink 11684

Beschreibung wird geladen...

Live-Position

3D-Globus wird geladen...

Nächste Überflüge

Höhenverlauf

Altitude vs Time

uPlot chart will show altitude changes over time

Zweizeiliger Elementsatz

1 64240U 25119H 25307.54359534 .00315980 00000-0 23697-2 0 9994
2 64240 43.0002 249.6208 0000573 319.9026 40.1799 15.70877321 25405
Epoch: 3. Nov. 2025 • Age: 17 hours

Aktueller Status

Höhe 361.8 km
Geschwindigkeit 7.69 km/s
Subsatellitenpunkt -27.36°S, 83.47°E
Startdatum 3. Juni 2025
Alter 0.4 years
Typ internet

Technische Details

Klassifizierung Payload
Masse 960.00 kg
Trockenmasse 910.00 kg
Gesamtmasse 960.00 kg
Länge 0.30 m
Durchmesser 4.10 m
Spannweite 29.00 m
Form Box + pan
Hersteller SPXS
Bus-Typ Starlink V2MD
Phasenstatus In Orbit
Besitzer/Staat SPXS/US

Große Konstellationen

Loading constellations...